Powrót do katalogu

STARLINK-32269

AktywnyŁącznośćVLEO
NORAD 60377·PAYLOAD·🇺🇸 United States

Wystrzelony Aug 4, 2024 z Vandenberg Space Force Base

Loading…

Następne Przeloty (najbliższe 24 godziny)

TLE

ŚwieżeSource: CelesTrak SupGP

Epoka: Sep 15, 2026, 01:57 UTC

1 60377C 24138Y   26258.08173611 -.00022164  00000+0 -71284-3 0  2580
2 60377  53.1570 148.8635 0001338  85.0511 105.1247 15.31707719    18

Śledź STARLINK-32269 w czasie rzeczywistym z AllMySat

Download on the App Store